Retour au catalogue

STARLINK-33952

ActifCommunicationsVLEO
NORAD 64046·PAYLOAD·🇺🇸 United States

Lancé May 16, 2025 depuis Vandenberg Space Force Base

Loading…

Prochains Passages (prochaines 24 heures)

TLE

FraisSource: CelesTrak SupGP

Époque: Sep 14, 2026, 21:43 UTC

1 64046C 25102AA  26257.90534722 -.00038009  00000+0 -13226-2 0  2578
2 64046  70.0009 355.9123 0003428 273.4413   7.3825 15.29588393    16

Suivez STARLINK-33952 en temps réel avec AllMySat

Download on the App Store